Location: Leeds
(37.2390°N, 113.3580°W)
Time: 14:03:26
(UTC-06:00)

Daily predictions for brighter satellites

Satellite Brightness Start Highest point End
(mag) Time Altitude Azimuth Time Altitude Azimuth Time Altitude Azimuth
ARGOS 4.5 21:19:09 10° ESE 21:23:26 25° ENE 21:27:45 10° NNE
Spot 2 Rocket 3.8 21:24:11 10° SSE 21:29:03 51° ENE 21:33:57 10° N
Cosmos 1420 Rocket 4.0 21:27:35 10° NNW 21:32:47 77° ENE 21:37:57 10° SSE
Cosmos 1452 Rocket 3.6 21:28:08 10° NNW 21:33:27 89° ENE 21:38:43 10° SSE
SJ-6B 4.5 21:30:33 10° SSW 21:34:07 34° W 21:37:48 10° NNW
Cosmos 1844 Rocket 2.9 21:32:35 10° S 21:38:00 48° ESE 21:43:25 10° NE
YAOGAN 6 3.9 21:36:14 10° SSW 21:39:32 38° W 21:42:50 10° NNW
NOAA 11 4.2 21:36:52 10° SSE 21:42:17 81° ENE 21:47:43 10° N
Cosmos 1400 Rocket 3.8 21:39:25 10° SSW 21:43:20 50° W 21:47:13 10° N
Cosmos 1844 4.1 21:39:19 10° S 21:44:36 41° ESE 21:49:58 10° NE
Cosmos 1238 Rocket 2.7 21:43:16 10° SSE 21:46:00 37° E 21:48:50 10° NNE
CZ-3 Stage 3 3.7 21:42:50 10° WSW 21:46:02 42° SSE 21:57:50 10° E
Cosmos 1470 4.5 21:44:03 10° NNW 21:47:36 33° W 21:51:08 10° SSW
Cosmos 2084 3.9 21:45:54 10° NNW 21:49:35 42° NE 21:52:41 14° ESE
Cosmos 1346 Rocket 3.7 21:47:52 10° N 21:51:32 34° ENE 21:54:36 14° SE
Cosmos 2285 Rocket 4.0 21:46:21 10° SSW 21:52:39 81° ESE 21:58:59 10° NNE
Lacrosse 5 3.0 21:47:47 10° WSW 21:52:40 47° NW 21:57:34 10° NNE
ATLAS 3B R/B 3.8 21:48:49 10° NNW 21:54:32 29° NE 22:00:07 10° ESE
Cosmos-2242 3.7 21:50:41 10° N 21:54:48 38° E 21:58:13 14° SE
Cosmos 2266 Rocket 4.2 21:49:56 10° N 21:56:20 77° W 22:02:35 10° S
USA 238 DEB 4.5 21:52:21 10° NNW 21:59:07 43° NE 22:05:06 14° ESE
USA 238 4.5 21:52:28 10° NNW 21:59:13 43° NE 22:05:12 14° ESE
Cosmos 494 Rocket 4.2 21:56:47 10° S 22:01:50 52° ESE 22:06:56 10° NNE
BREEZE-M DEB (TANK) 4.2 21:48:33 10° WSW 22:02:20 72° NW 22:06:10 10° NE
Aureole 1 Rocket 4.3 21:59:43 10° SW 22:02:39 34° WNW 22:06:09 10° N
Meteor 1-24 Rocket 3.9 21:56:53 10° S 22:02:53 75° E 22:08:54 10° NNE
H-2A R/B 2.6 21:59:23 14° SE 22:03:41 45° ENE 22:08:49 10° N
Cosmos 1269 Rocket 4.2 22:00:55 10° SSW 22:06:13 79° WNW 22:11:33 10° NNE
Timation 1 Rocket 4.3 22:01:10 10° SSW 22:07:05 75° ESE 22:13:04 10° NNE
Helios 1B rocket 4.4 22:08:10 10° ENE 22:09:53 12° E 22:10:02 12° E
Cosmos 1908 4.0 22:07:39 10° N 22:11:15 36° E 22:13:18 21° SE
Cosmos 1340 4.0 22:12:56 10° NNE 22:16:03 24° ENE 22:17:23 20° ESE
Nadezhda 2 Rocket 4.4 22:09:51 10° N 22:16:07 82° E 22:21:50 12° S
SEDSat Delta rocket 4.2 22:17:30 10° SW 22:22:02 28° SSE 22:23:43 23° SE
Iridium 4 Rocket 4.2 22:17:08 10° SSW 22:22:41 58° W 22:27:52 10° N
Cosmos 1953 Rocket 4.3 22:18:52 10° SSW 22:23:07 54° W 22:27:26 10° N
Cosmos 1437 2.8 22:20:07 10° NNW 22:23:17 72° W 22:25:12 21° S
ATLAS 2AS CENTAUR R/B 3.4 22:16:08 10° SW 22:23:52 70° NW 22:32:00 10° NNE
OE (NEXTSAT) 4.4 22:23:47 10° WNW 22:27:19 70° SSW 22:28:45 32° SE
Cosmos 1553 Rocket 4.0 22:22:24 13° S 22:27:47 61° E 22:33:44 10° NNE
Cosmos 1674 2.6 22:25:09 15° S 22:28:17 87° E 22:32:09 10° N
MetOp-B 4.1 22:25:04 19° SSE 22:29:00 79° ENE 22:34:22 10° N
ERS-1 Rocket 3.2 22:26:44 23° SE 22:29:48 57° ENE 22:34:44 10° N
DMSP B5D2-2 4.2 22:28:53 10° NNE 22:34:02 54° E 22:37:28 20° S
Cosmos 1300 4.2 22:32:56 10° NNE 22:35:56 21° ENE 22:36:28 21° E
Cosmos 1726 2.2 22:36:53 10° N 22:40:37 61° E 22:41:48 38° SE
Cosmos 2251 Rocket 3.6 22:37:15 16° S 22:41:26 60° ESE 22:46:40 10° NNE
Resurs 01 Rocket 4.1 22:39:19 10° SW 22:42:15 17° W 22:45:12 10° NW
Meteor 2-1 Rocket 4.3 22:36:26 10° N 22:42:23 82° E 22:46:07 24° SSE
Terra 3.2 22:41:23 20° E 22:42:56 24° ENE 22:46:42 10° NNE
Meteor 2-10 4.2 22:37:34 10° N 22:43:01 63° E 22:45:55 28° SSE
Cosmos 724 4.4 22:37:12 10° NNW 22:43:16 78° WSW 22:46:54 26° SSE
Cosmos 2221 3.8 22:40:47 10° NNE 22:44:18 24° ENE 22:45:02 23° E
Cosmos 921 Rocket 3.3 22:43:35 10° NNW 22:48:03 65° WSW 22:50:23 27° S
Iridium 81 4.4 22:49:33 43° WSW 22:49:53 47° W 22:52:37 10° N
USA 215 3.7 22:46:11 22° SSE 22:50:16 50° SW 22:56:38 10° NW
OAO 3 Rocket 3.3 22:46:40 10° W 22:51:33 59° S 22:53:18 36° SE
Cosmos 1461 3.0 22:52:20 10° SSW 22:56:55 85° ESE 23:01:41 10° NNE
NOSS 2-2 (E) 3.4 22:59:03 50° SE 22:59:09 50° ESE 23:03:11 10° NE
NOSS 3-4 (A) 3.3 22:55:14 10° SSW 23:01:21 76° ESE 23:07:41 10° NE
NOSS 3-4 (C) 3.3 22:55:20 10° SSW 23:01:25 75° ESE 23:07:46 10° NE
CENTAUR R/B 4.3 22:54:33 10° NNW 23:01:29 31° NE 23:07:22 15° E
CZ-2C R/B 4.1 23:00:37 28° ESE 23:02:44 37° ENE 23:07:56 10° N
ARGOS 4.2 22:59:18 15° SSW 23:03:25 40° W 23:08:30 10° NNW
Cosmos 2278 Rocket 2.1 23:00:36 16° SSW 23:05:15 83° ESE 23:10:57 10° NNE
IGS 5A 3.7 23:09:47 46° E 23:10:19 50° ENE 23:14:21 10° N
BREEZE-M DEB (TANK) 4.2 22:59:06 10° SW 23:11:42 61° SE 23:15:59 10° ENE
APEX 2.9 23:11:26 10° NNW 23:14:45 86° ENE 23:14:55 80° SE
Meteor 1-21 Rocket 4.4 23:12:22 23° SSW 23:16:13 77° W 23:22:02 10° N
SL-14 R/B 3.4 23:20:17 51° SW 23:21:03 66° W 23:24:58 10° N
CARTOSAT-1 3.5 23:21:01 60° ESE 23:21:32 68° ENE 23:25:51 10° N
Meteor 2-13 Rocket 4.5 23:19:12 10° N 23:25:15 75° W 23:27:54 36° S
Cosmos 1745 Rocket 4.2 23:19:21 10° NNW 23:25:37 67° W 23:28:39 31° SSW
COSMOS 2406 3.8 23:20:46 10° NNW 23:26:17 49° WSW 23:28:30 32° SSW
SPOT 5 3.3 23:24:54 39° SSW 23:26:40 62° W 23:31:53 10° NNW
NOSS 2-2 (D) 3.1 23:29:52 82° WSW 23:30:02 86° WNW 23:34:12 10° NNE
Cosmos 1076 Rocket 3.3 23:32:30 74° E 23:32:30 74° E 23:36:43 10° N
SL-27 R/B 4.3 23:31:30 10° N 23:33:50 23° NE 23:33:50 23° NE
ATLAS 5 CENTAUR R/B 1.8 23:37:13 35° SW 23:39:01 69° WNW 23:43:49 10° NNE
Cosmos 1626 2.4 23:40:51 66° NNW 23:40:51 66° NNW 23:44:08 10° N
Helios 1A 4.0 23:41:42 35° WSW 23:42:19 37° W 23:46:15 10° NNW
SPOT 1/Viking Rocket 4.3 23:41:24 34° SW 23:42:59 44° W 23:47:54 10° NNW
H-2A R/B 4.1 23:40:01 12° SW 23:43:17 20° W 23:47:13 10° NW
Helios 1B rocket 3.4 23:41:28 10° N 23:45:23 44° WNW 23:46:22 36° WSW
ATLAS 3B R/B 3.0 23:39:06 10° NW 23:45:28 53° WSW 23:47:23 40° SSW
Cosmos 1766 Rocket 4.2 23:46:05 45° ENE 23:46:05 45° ENE 23:49:47 10° NNE
Cosmos 1703 4.3 23:47:40 37° NE 23:47:40 37° NE 23:50:19 10° NNE
Cosmos 2297 3.6 23:48:46 61° SSE 23:49:38 73° ESE 23:55:20 10° NNE
YAOGAN 11 4.0 23:52:02 87° ESE 23:52:05 88° ENE 23:56:40 10° NNW
Cosmos 2058 4.4 23:54:05 26° NE 23:54:05 26° NE 23:56:28 10° NNE
SL-08 ROCKET BODY 4.4 23:47:03 10° N 23:53:17 80° E 23:54:34 58° SSE
